Regional Weather Roundup
Issued by NWS Grand Forks, ND

Home | Current Version | Previous Version | Graphics & Text | Print | Product List | Glossary On
Versions: 1 2 3 4 5 6 7 8 9 10 11 12 13 14 15 16 17 18 19 20 21 22 23 24 25 26 27 28 29 30 31 32 33 34 35 36 37 38 39 40 41 42 43 44 45 46 47 48 49 50
000
ASUS43 KFGF 302210
RWRFGF
PRAIRIE TO PINES  WEATHER ROUNDUP
NATIONAL WEATHER SERVICE EASTERN NORTH DAKOTA/GRAND FORKS ND
500 PM CDT THU JUL 30 2015

 **SATELLITE DATA USED TO AUGMENT SKY COVER AT AUTOMATED STATIONS**
 *****  WEATHER ACROSS EASTERN NORTH DAKOTA  *****

CITY           SKY/WX    TMP DP  RH WIND       PRES   REMARKS
GRAND FORKS    MOSUNNY   82  54  37 NW15G23   29.97F
GRAND FRKS AFB MOSUNNY   80  54  39 NW16G23   29.99F
GRAND FRKS NWS   N/A     77 N/A N/A NW9         N/A
DEVILS LAKE    SUNNY     81  52  36 W22G31    30.03F
FARGO          SUNNY     83  53  35 NW21G28   30.02F
WAHPETON ARPT  CLEAR     82  50  32 NW16      30.04F
$$

 ***** WEATHER ACROSS CENTRAL AND WESTERN NORTH DAKOTA  *****

CITY           SKY/WX    TMP DP  RH WIND       PRES   REMARKS
BISMARCK       SUNNY     84  44  24 NW18G25   30.13F
MINOT          SUNNY     81  47  30 NW18G28   30.11S
JAMESTOWN      SUNNY     81  49  32 NW17      30.07F
MINOT AFB      SUNNY     83  46  27 NW23G31   30.09F
GARRISON         N/A     81  49  32 NW17G24   30.13F
WILLISTON      MOSUNNY   84  43  23 NW14      30.15F
DICKINSON      MOSUNNY   84  44  24 NW12      30.16F
HETTINGER      SUNNY     87  41  19 W8        30.18F
$$

 *****  OTHER AIRPORT OBSERVATIONS IN OUR AREA  *****

CITY           SKY/WX    TMP DP  RH WIND       PRES   REMARKS
WALHALLA       FAIR      79  54  41 MISG      29.95F
GRAFTON AIRPOR FAIR      81  54  39 NW21G29   29.97F
VALLEY CITY AR FAIR      82  52  34 NW16G25   30.06F
CANDO          NOT AVBL
CAVALIER APRT  FAIR      81  54  39 W13G23    29.95F
GWINNER        FAIR      82  55  39 NW16      30.07F
SHEYENNE NWR     N/A     83  57  40 W10       29.95
ROLLA            N/A     72  48  43 NW22G31   30.06S
 ***** THE ABOVE OBSERVATIONS ARE NON NWS ARE NOT QUALITY
       CONTROLLED AND MAY MIS-REPORT RAIN FOR SNOW...
$$

  *****  WEATHER ACROSS NORTHERN MINNESOTA  *****

CITY           SKY/WX    TMP DP  RH WIND       PRES   REMARKS
FLAG ISLAND    SUNNY     77  52  41 W22G30    29.86S
WARROAD        MOSUNNY   75  59  57 W10G17    29.91S
ROSEAU         SUNNY     79  57  47 W15G25    29.92S
HALLOCK        MOSUNNY   79  50  36 W14       29.93F
THF RVR FALLS  MOSUNNY   79  54  41 W16       29.97F
BAUDETTE       SUNNY     79  55  43 W15G23    29.90S
WASKISH        SUNNY     79  61  53 W14       29.93F
CROOKSTON      MOSUNNY   81  55  41 NW20      29.98F
$$
  *****  WEATHER ACROSS CENTRAL AND WEST MINNESOTA  *****

CITY           SKY/WX    TMP DP  RH WIND       PRES   REMARKS
FOSSTON        MOSUNNY   79  54  41 W18       30.00F
BEMIDJI        MOSUNNY   79  51  36 W21G28    29.98F
PARK RAPIDS    SUNNY     81  52  36 W18G31    30.01F
ELBOW LAKE     FAIR      81  60  48 W15       30.05F
WADENA         MOSUNNY   81  54  39 W15G26    30.02F
DETROIT LAKES  SUNNY     79  50  36 NW17G28   30.05S
MOORHEAD       SUNNY     81  57  44 NW16      30.03S
FERGUS FALLS   MOSUNNY   81  55  41 NW15      30.03F
MORRIS MN      SUNNY     82  61  47 NW10G16   30.05F
STAPLES        MOSUNNY   81  52  36 W14G24    30.02F
$$
  *****  WEATHER ELSEWHERE ACROSS MINNESOTA  *****

CITY           SKY/WX    TMP DP  RH WIND       PRES   REMARKS
DULUTH         MOSUNNY   81  50  33 NW20G30   29.93F
INTRNTL FALLS  MOSUNNY   78  54  43 W14G30    29.87F
ELY            MOSUNNY   77  55  47 W13G22    29.88F
CLOQUET        SUNNY     81  46  30 W18G26    29.94F
WHEATON        SUNNY     81  59  47 W12       30.06F
BRAINERD       MOSUNNY   79  52  38 W16G28    30.00F
HIBBING        SUNNY     80  49  33 W14G23    29.93S
ALEXANDRIA     MOSUNNY   79  57  46 W14       30.07F
SAINT CLOUD    MOSUNNY   83  55  38 W14G22    30.03F
MINNEAPOLIS    SUNNY     84  54  35 W16G29    30.02F
$$

  *****  WEATHER ACROSS SOUTH DAKOTA  *****

CITY           SKY/WX    TMP DP  RH WIND       PRES   REMARKS
SIOUX FALLS    MOSUNNY   86  57  37 NW6       30.12F
BROOKINGS      SUNNY     84  55  37 W10       30.13F
WATERTOWN      SUNNY     85  55  35 W13       30.10F
HURON          SUNNY     88  55  32 W10       30.09F
SISSETON         N/A     84  60  44 NW15      30.04F
ABERDEEN       SUNNY     88  52  29 NW16      30.08F
MITCHELL       SUNNY     89  57  33 CALM      30.11F
PIERRE         SUNNY     91  43  18 W6        30.11F
MOBRIDGE       SUNNY     89  51  27 N13G23    30.09F
RAPID CITY     SUNNY     87  46  24 N6        30.22F
$$

  *****  SOME WEATHER IN NEARBY STATES *****

CITY           SKY/WX    TMP DP  RH WIND       PRES   REMARKS
GLASGOW MT     MOSUNNY   86  40  19 NW13      30.16F
GREAT FALLS MT SUNNY     86  35  16 W6        30.22F
CHEYENNE WY    SUNNY     83  39  21 S7        30.36F
SCOTTSBLUFF NE SUNNY     90  44  20 E7        30.24F
OMAHA NE       MOSUNNY   91  57  31 W6G16     30.13F
DES MOINES IA  MOSUNNY   88  56  33 W15G21    30.11F
DAVENPORT IA   SUNNY     85  66  53 W12       30.07F
CHICAGO IL     MOSUNNY   87  53  31 W14G24    30.01F
EAU CLAIRE WI  MOSUNNY   83  56  39 W15G24    29.99F
LA CROSSE WI   SUNNY     86  55  34 W15       30.02S
$$

  *****  SOME NATIONAL WEATHER *****

CITY           SKY/WX    TMP DP  RH WIND       PRES   REMARKS
LA GUARDIA NY  CLOUDY    79  73  82 S9        29.80S
RALEIGH NC     PTSUNNY   87  73  62 N6        29.87F HX  94
ATLANTA GA     PTSUNNY   82  75  79 W5        29.92F THUNDER
NEW ORLEANS LA TSTM      77  71  82 N25G46    29.99R
OKLAHOMA CITY  PTSUNNY   91  72  53 NE17      30.10F HX  98
ALBUQUERQUE NM PTSUNNY   82  57  42 N6        30.30F
SALT LAKE CITY MOSUNNY   92  22   8 NW10      30.23F
LOS ANGELES CA MOSUNNY   75  65  70 W14       29.99F
BOISE ID       SUNNY     93  33  12 NW7       30.17F
SEATTLE WA     SUNNY     92  47  21 N9        30.07F
$$

*** WEATHER ACROSS MANITOBA...SASKATCHEWAN AND ONTARIO ***
                ***ONTARIO***

CITY           SKY/WX    TMP DP  RH WIND       PRES   REMARKS
GERALDTON      PTSUNNY   66  57  72 NW6G20    29.71R
THUNDER BAY    PTSUNNY   66  61  82 W10G17    29.81R
SIOUX LOOKOUT  TSTM      61  57  88 NW7       29.81R
TORONTO        MOSUNNY   84  54  34 W22G29    29.83R
BIG TROUT LK   CLOUDY    63  54  72 NW20G36   29.61S
PICKLE LAKE    PTSUNNY   70  52  52 VRB6G22   29.70R
DRYDEN         PTSUNNY   61  57  88 SW18G28   29.86R THUNDER
KENORA         MOSUNNY   77  52  41 W18G25    29.85S
$$
                *** MANITOBA***

CITY           SKY/WX    TMP DP  RH WIND       PRES   REMARKS
BRANDON        MOSUNNY   75  50  41 NW26G40   30.02S
DAUPHIN        SUNNY     73  54  49 W20G35    29.94S
ISLAND LAKE    LGT RAIN  64  55  72 W6        29.75R
PILOT MOUND      N/A     73  50  43 W16G25      N/A
THE PAS        PTSUNNY   68  54  60 W8        29.90F
THOMPSON       PTSUNNY   73  50  43 N13       29.77S
WINNIPEG       PTSUNNY   64  59  82 NW8       29.91R
LYNN LAKE      SUNNY     73  43  33 N13G18    29.83S
CHURCHILL      PTSUNNY   55  52  88 N12       29.68S
GILLAM         LGT RAIN  63  57  82 N32G40    29.70R
$$
                ***SASKATCHEWAN***

CITY           SKY/WX    TMP DP  RH WIND       PRES   REMARKS
ESTEVAN        MOSUNNY   77  43  29 NW22G32   30.15F
KINDERSLEY     MOSUNNY   79  41  25 NW14      30.14F
LLOYDMINSTER   MOSUNNY   73  41  31 W20       30.13S
PRINCE ALBERT  NOT AVBL
REGINA         MOSUNNY   77  50  38 W17G26    30.13F
YORKTON        MOSUNNY   72  48  43 NW21G30   30.04S
N. BATTLEFORD  MOSUNNY   72  43  35 NW15G23   30.11F
LA RONGE       PTSUNNY   70  50  49 NW14G24   29.95R
SASKATOON      MOSUNNY   77  43  29 W22G30    30.10F
SWIFT CURRENT  SUNNY     77  43  29 W9        30.17F
$$
NOTE: THESE ARE AUTOMATED STATIONS WITH LIMITED QUALITY CONTROL
      "FAIR" INDICATES FEW OR NO CLOUDS BELOW 12,000 FEET WITH NO
      SIGNIFICANT WEATHER AND/OR OBSTRUCTIONS TO VISIBILITY.
      SKY/WX - SKY CONDITION AND SIGNIFICANT WEATHER.
      TMP - AIR TEMPERATURE.    DP   - DEWPOINT TEMPERATURE.
      RH  - RELATIVE HUMIDITY.  PRES - PRESSURE.
      HX  - HEAT INDEX.         WCI  - WIND CHILL INDEX.
$



USA.gov is the U.S. government's official web portal to all federal, state and local government web resources and services.